TimeCDT,TemperatureF,Dew PointF,Humidity,Sea Level PressureIn,VisibilityMPH,Wind Direction,Wind SpeedMPH,Gust SpeedMPH,PrecipitationIn,Events,Conditions,WindDirDegrees,DateUTC
12:11 AM,28.4,24.8,86,29.73,7.0,SE,24.2,31.1,N/A,,Overcast,130,2013-03-18 05:11:00
12:32 AM,28.4,24.8,86,29.71,10.0,SE,21.9,29.9,N/A,,Overcast,130,2013-03-18 05:32:00
12:53 AM,28.4,26.6,93,29.71,2.5,SE,17.3,25.3,N/A,Snow,Light Snow,140,2013-03-18 05:53:00
1:12 AM,28.4,26.6,93,29.70,2.5,SE,16.1,23.0,N/A,Snow,Light Snow,140,2013-03-18 06:12:00
1:33 AM,28.4,26.6,93,29.68,1.5,SE,19.6,27.6,N/A,Snow,Light Snow,140,2013-03-18 06:33:00
1:53 AM,28.4,28.4,100,29.68,1.2,SE,15.0,24.2,N/A,Snow,Light Snow,140,2013-03-18 06:53:00
2:12 AM,28.4,28.4,100,29.68,0.8,SSE,13.8,21.9,N/A,Snow,Snow,150,2013-03-18 07:12:00
2:33 AM,28.4,28.4,100,29.67,0.8,SE,16.1,23.0,N/A,Snow,Snow,140,2013-03-18 07:33:00
2:53 AM,28.4,28.4,100,29.68,0.5,SSE,8.1,-,N/A,Snow,Snow,150,2013-03-18 07:53:00
3:12 AM,28.4,28.4,100,29.67,1.5,SSE,10.4,17.3,N/A,Snow,Light Snow,150,2013-03-18 08:12:00
3:33 AM,28.4,28.4,100,29.65,1.0,SSE,9.2,17.3,N/A,Snow,Light Snow,150,2013-03-18 08:33:00
3:53 AM,28.4,28.4,100,29.65,2.0,SSE,9.2,16.1,N/A,Snow,Light Snow,150,2013-03-18 08:53:00
4:12 AM,30.2,30.2,100,29.64,3.0,SSE,9.2,21.9,N/A,,Overcast,150,2013-03-18 09:12:00
4:33 AM,30.2,30.2,100,29.62,3.0,SSE,10.4,19.6,N/A,,Overcast,150,2013-03-18 09:33:00
4:53 AM,30.2,30.2,100,29.62,2.0,SSE,9.2,16.1,N/A,,Overcast,160,2013-03-18 09:53:00
5:12 AM,30.2,30.2,100,29.61,2.0,SSE,8.1,-,N/A,,Overcast,160,2013-03-18 10:12:00
5:33 AM,30.2,30.2,100,29.60,2.5,SSE,8.1,17.3,N/A,,Overcast,160,2013-03-18 10:33:00
5:52 AM,30.2,30.2,100,29.59,2.5,South,5.8,19.6,N/A,,Overcast,170,2013-03-18 10:52:00
6:09 AM,30.2,30.2,100,29.58,3.0,South,8.1,-,N/A,,Overcast,170,2013-03-18 11:09:00
6:10 AM,30.2,30.2,100,29.58,2.5,South,6.9,-,N/A,,Overcast,170,2013-03-18 11:10:00
7:13 AM,30.2,30.2,100,29.58,3.0,West,10.4,16.1,N/A,,Mist,260,2013-03-18 12:13:00
7:33 AM,26.6,26.6,100,29.59,4.0,West,11.5,20.7,N/A,,Overcast,270,2013-03-18 12:33:00
7:52 AM,26.6,24.8,93,29.60,4.0,West,13.8,23.0,N/A,,Overcast,270,2013-03-18 12:52:00
8:13 AM,23.0,21.2,93,29.60,10.0,West,15.0,26.5,N/A,,Overcast,260,2013-03-18 13:13:00
8:32 AM,21.2,19.4,93,29.60,10.0,West,11.5,26.5,N/A,,Overcast,270,2013-03-18 13:32:00
8:53 AM,21.2,19.4,93,29.61,10.0,West,16.1,27.6,N/A,,Overcast,270,2013-03-18 13:53:00
9:12 AM,19.4,17.6,93,29.61,10.0,West,16.1,24.2,N/A,,Overcast,280,2013-03-18 14:12:00
9:32 AM,19.4,15.8,86,29.62,4.0,West,15.0,29.9,N/A,,Overcast,270,2013-03-18 14:32:00
9:53 AM,19.4,15.8,86,29.63,3.0,West,10.4,25.3,N/A,Snow,Light Snow,270,2013-03-18 14:53:00
10:12 AM,17.6,14.0,86,29.64,4.0,WNW,17.3,27.6,N/A,,Overcast,290,2013-03-18 15:12:00
10:32 AM,17.6,15.8,93,29.65,7.0,West,15.0,24.2,N/A,Snow,Light Snow,280,2013-03-18 15:32:00
10:53 AM,17.6,14.0,86,29.65,2.0,West,15.0,26.5,N/A,Snow,Light Snow,280,2013-03-18 15:53:00
11:12 AM,17.6,12.2,79,29.65,2.0,West,18.4,28.8,N/A,Snow,Light Snow,280,2013-03-18 16:12:00
11:32 AM,15.8,12.2,86,29.66,2.0,West,18.4,25.3,N/A,Snow,Light Snow,280,2013-03-18 16:32:00
11:53 AM,17.6,12.2,79,29.66,5.0,WNW,16.1,29.9,N/A,Snow,Light Snow,290,2013-03-18 16:53:00
12:13 PM,17.6,12.2,79,29.67,1.8,West,23.0,31.1,N/A,Snow,Light Snow,280,2013-03-18 17:13:00
12:32 PM,17.6,10.4,73,29.67,4.0,WNW,19.6,32.2,N/A,,Haze,290,2013-03-18 17:32:00
12:53 PM,17.6,12.2,79,29.68,4.0,West,23.0,32.2,N/A,,Haze,280,2013-03-18 17:53:00
1:13 PM,15.8,10.4,79,29.67,4.0,West,18.4,31.1,N/A,,Overcast,280,2013-03-18 18:13:00
1:32 PM,15.8,10.4,79,29.67,7.0,West,20.7,29.9,N/A,,Overcast,280,2013-03-18 18:32:00
1:53 PM,17.6,12.2,79,29.67,3.0,West,20.7,28.8,N/A,,Overcast,280,2013-03-18 18:53:00
2:13 PM,15.8,12.2,86,29.67,4.0,West,17.3,27.6,N/A,,Overcast,280,2013-03-18 19:13:00
2:32 PM,17.6,12.2,79,29.68,3.0,WNW,19.6,28.8,N/A,Snow,Light Snow,290,2013-03-18 19:32:00
2:53 PM,17.6,12.2,79,29.67,3.0,West,19.6,32.2,N/A,,Haze,270,2013-03-18 19:53:00
3:13 PM,17.6,12.2,79,29.67,-9999.0,West,20.7,26.5,N/A,,Overcast,280,2013-03-18 20:13:00
3:32 PM,15.8,10.4,79,29.68,-9999.0,WNW,18.4,25.3,N/A,,Overcast,290,2013-03-18 20:32:00
3:53 PM,17.6,10.4,73,29.69,10.0,WNW,18.4,33.4,N/A,,Overcast,290,2013-03-18 20:53:00
4:13 PM,15.8,10.4,79,29.70,4.0,WNW,19.6,31.1,N/A,Snow,Light Snow,290,2013-03-18 21:13:00
4:32 PM,17.6,10.4,73,29.70,7.0,WNW,23.0,35.7,N/A,,Overcast,290,2013-03-18 21:32:00
4:53 PM,17.6,10.4,73,29.71,3.0,WNW,21.9,31.1,N/A,Snow,Light Snow,290,2013-03-18 21:53:00
5:13 PM,15.8,10.4,79,29.71,5.0,WNW,16.1,29.9,N/A,Snow,Light Snow,290,2013-03-18 22:13:00
5:32 PM,15.8,12.2,86,29.72,4.0,WNW,17.3,26.5,N/A,Snow,Light Snow,290,2013-03-18 22:32:00
5:53 PM,15.8,10.4,79,29.73,3.0,WNW,19.6,29.9,N/A,,Overcast,290,2013-03-18 22:53:00
6:12 PM,15.8,10.4,79,29.74,4.0,WNW,24.2,31.1,N/A,,Overcast,290,2013-03-18 23:12:00
6:33 PM,15.8,10.4,79,29.75,3.0,WNW,19.6,28.8,N/A,Snow,Light Snow,290,2013-03-18 23:33:00
6:52 PM,15.8,10.4,79,29.76,4.0,WNW,23.0,29.9,N/A,Snow,Light Snow,290,2013-03-18 23:52:00
7:13 PM,14.0,10.4,86,29.77,7.0,WNW,20.7,28.8,N/A,,Overcast,290,2013-03-19 00:13:00
7:32 PM,14.0,10.4,86,29.78,7.0,WNW,17.3,27.6,N/A,,Overcast,290,2013-03-19 00:32:00
7:52 PM,12.2,8.6,85,29.78,10.0,WNW,18.4,27.6,N/A,,Overcast,290,2013-03-19 00:52:00
8:13 PM,12.2,8.6,85,29.79,10.0,WNW,20.7,27.6,N/A,,Overcast,290,2013-03-19 01:13:00
8:32 PM,12.2,8.6,85,29.80,7.0,WNW,21.9,29.9,N/A,,Overcast,290,2013-03-19 01:32:00
8:52 PM,12.2,8.6,85,29.81,7.0,WNW,20.7,26.5,N/A,,Overcast,290,2013-03-19 01:52:00
9:13 PM,12.2,8.6,85,29.82,7.0,WNW,19.6,29.9,N/A,,Overcast,300,2013-03-19 02:13:00
9:32 PM,12.2,8.6,85,29.83,7.0,WNW,17.3,35.7,N/A,,Mostly Cloudy,290,2013-03-19 02:32:00
9:53 PM,12.2,8.6,85,29.84,10.0,WNW,18.4,25.3,N/A,,Overcast,290,2013-03-19 02:53:00
10:13 PM,10.4,6.8,85,29.85,10.0,WNW,20.7,26.5,N/A,,Overcast,300,2013-03-19 03:13:00
10:53 PM,10.4,6.8,85,29.86,10.0,WNW,16.1,26.5,N/A,,Scattered Clouds,290,2013-03-19 03:53:00
11:13 PM,10.4,6.8,85,29.86,10.0,WNW,18.4,25.3,N/A,,Clear,290,2013-03-19 04:13:00
11:32 PM,10.4,6.8,85,29.86,10.0,WNW,17.3,23.0,N/A,,Clear,290,2013-03-19 04:32:00
11:53 PM,8.6,5.0,85,29.87,10.0,WNW,18.4,24.2,N/A,,Clear,290,2013-03-19 04:53:00